weather.gov     
National Weather Service

Regional Weather Roundup
NWS Homepage
This page is being discontinued on March 12, 2014.
The same data is available at this site. Please update your bookmarks.
Thank you, and we apologize for the inconvenience.
Please send an email to SR-SRH.Webmaster@noaa.gov with any concerns.


Current Version
Previous Version:    01  02  03  04  05  06  07  08  09  10  11  12  13  14  15  16  17  18  19  20  21  22  23  24  25  26  
[Printable]
485
ASUS42 KKEY 232110
RWRKEY

FLORIDA REGIONAL WEATHER ROUNDUP FOR THE FLORIDA KEYS
NATIONAL WEATHER SERVICE KEY WEST FLORIDA
500 PM EDT THU OCT 23 2014

...SOUTH FLORIDA AND THE KEYS...

CITY           SKY/WX    TMP DP  RH WIND       PRES   REMARKS
FORT MYERS     PTSUNNY   84  66  54 E12       29.87
SW REGIONAL AP PTSUNNY   81  66  60 E15       29.88R
NAPLES         PTSUNNY   82  67  60 NE16G23   29.87R
MIAMI          LGT RAIN  77  71  82 NE9G18    29.87S
WEST KENDALL   CLOUDY    80  71  74 NE15      29.86S
HOMESTEAD      CLOUDY    78  72  80 NE10      29.85S
MARATHON       LGT RAIN  74  74 100 E5        29.83S FOG
BOCA CHICA NAS CLOUDY    75  73  93 E15       29.82F
KEY WEST INTL  CLOUDY    76  75  97 E7        29.82F

...INTERNATIONAL WEATHER...

CITY           SKY/WX    TMP DP  RH WIND       PRES   REMARKS
NASSAU BAHAMAS PTSUNNY   79  73  83 SE5       29.87S
CANCUN MEXICO  LGT RAIN  79  77  94 E5        29.75S
COZUMEL MEXICO PTSUNNY   81  77  89 E5        29.75F

ADJACENT COASTAL WATERS...

STATION/POSITION TIME  SKY/WX   TEMP    WIND        PRES    WAVE
                                AIR SEA DIR/SP/G            HT/PER
                 (UTC)          (F)     (DEG/KT/KT) (MB)    (FT/S)
PULASKI SHOAL LI 2000            80      70/ 19/ 21 1009.9F
SAND KEY         2040            76      70/ 15/ 18 1009.5F
SOMBRERO KEY     2100            74     110/ 13/ 14 1010.8R
LONG KEY         1956            76 79   50/ 11/ 13 1010.9F
MOLASSES REEF    2100            76 83   60/  7/  8 1010.5F
FOWEY ROCKS      2100            78 80   40/ 13/ 13 1011.2S
Buoy 42080       NOT AVBL

$$




U.S. Dept. of Commerce
NOAA National Weather Service
1325 East West Highway
Silver Spring, MD 20910
E-mail: w-nws.webmaster@noaa.gov
Page last modified: May 16, 2007
NATIONAL WEATHER SERVICE: for Safety, for Work, for Fun - FOR LIFE